Olathe, KS

4:22 PM CDT on August 20, 2017 (GMT -0500)
Johnson County Executive

Weather History for KOJC - June, 2013

Change the Weather History Date:

Friday, June 21, 2013

  Actual Average Record
Temperature  
Mean Temperature 82 °F 75 °F  
Max Temperature 90 °F 84 °F 96 °F (1988)
Min Temperature 74 °F 65 °F 49 °F (1972)
Degree Days  
Heating Degree Days 0 0  
Month to date heating degree days 14 6  
Since 1 June heating degree days 14 6  
Since 1 July heating degree days 5099 4932  
Cooling Degree Days 17 10  
Month to date cooling degree days 148 161  
Year to date cooling degree days 249 265  
Since 1 June cooling degree days 148 161  
Growing Degree Days 32 (Base 50)    
Moisture  
Dew Point 71 °F    
Average Humidity 70    
Maximum Humidity 87    
Minimum Humidity 52    
Precipitation  
Precipitation 0.00 in 0.20 in 2.63 in (1967)
Month to date precipitation 3.65 4.37  
Year to date precipitation 21.58 19.11  
Sea Level Pressure  
Sea Level Pressure 29.93 in    
Wind  
Wind Speed 12 mph (South)    
Max Wind Speed 23 mph    
Max Gust Speed 32 mph    
Visibility 10 miles    
Events      
T = Trace of Precipitation, MM = Missing Value Source: NWS Daily Summary

Daily Weather History Graph

Daily Weather History Graph

Search for Another Location

Airport or City:

Trip Planner

Search our weather history database for the weather conditions in past years. The results will help you decide how hot, cold, wet, or windy it might be!

Date:

Astronomy

Jun. 21, 2013 Rise Set
Actual Time 5:54 AM CDT 8:47 PM CDT
Civil Twilight 5:21 AM CDT 9:19 PM CDT
Nautical Twilight 4:41 AM CDT 10:00 PM CDT
Astronomical Twilight 3:55 AM CDT 10:46 PM CDT
Moon 6:59 PM CDT (6/21) 4:09 AM CDT (6/21)
Length of Visible Light 15h 57m
Length of Day
14h 53m
Waxing Gibbous, 95% of the Moon is Illuminated
Jun 21
Waxing Gibbous
Jun 23
Full
Jun 29
Last Quarter
Jul 8
New
Jul 15
First Quarter

Hourly Weather History & Observations

Time (CDT) Temp. Heat Index Dew Point Humidity Pressure Visibility Wind Dir Wind Speed Gust Speed Precip Events Conditions
12:53 AM 77.0 °F - 71.1 °F 82% 29.95 in 10.0 mi SSE 10.4 mph - N/A   Clear
1:53 AM 75.9 °F - 70.0 °F 82% 29.95 in 10.0 mi South 9.2 mph - N/A   Clear
2:53 AM 75.0 °F - 70.0 °F 84% 29.93 in 10.0 mi South 10.4 mph - N/A   Clear
3:53 AM 75.0 °F - 70.0 °F 84% 29.93 in 10.0 mi South 11.5 mph - N/A   Clear
4:53 AM 75.9 °F - 70.0 °F 82% 29.93 in 10.0 mi South 12.7 mph 20.7 mph N/A   Clear
5:53 AM 75.0 °F - 70.0 °F 84% 29.93 in 9.0 mi South 12.7 mph - N/A   Clear
6:53 AM 75.0 °F - 70.0 °F 84% 29.94 in 9.0 mi South 12.7 mph - N/A   Clear
7:53 AM 75.9 °F - 71.1 °F 85% 29.95 in 10.0 mi South 15.0 mph - N/A   Clear
8:53 AM 78.1 °F - 71.1 °F 79% 29.96 in 10.0 mi South 13.8 mph 20.7 mph N/A   Clear
9:53 AM 80.1 °F 83.8 °F 72.0 °F 76% 29.96 in 10.0 mi South 15.0 mph 20.7 mph N/A   Clear
10:53 AM 82.9 °F 88.0 °F 72.0 °F 69% 29.95 in 10.0 mi South 16.1 mph 21.9 mph N/A   Clear
11:53 AM 84.0 °F 89.0 °F 71.1 °F 65% 29.95 in 10.0 mi South 17.3 mph 24.2 mph N/A   Clear
12:53 PM 87.1 °F 94.5 °F 73.0 °F 63% 29.95 in 10.0 mi SSW 15.0 mph 21.9 mph N/A   Clear
1:53 PM 88.0 °F 93.8 °F 71.1 °F 57% 29.94 in 10.0 mi South 13.8 mph 24.2 mph N/A   Clear
2:53 PM 89.1 °F 97.0 °F 73.0 °F 59% 29.91 in 10.0 mi South 15.0 mph 20.7 mph N/A   Clear
3:53 PM 89.1 °F 94.1 °F 70.0 °F 53% 29.91 in 10.0 mi South 16.1 mph 24.2 mph N/A   Clear
4:53 PM 87.1 °F 92.8 °F 71.1 °F 59% 29.90 in 10.0 mi South 12.7 mph 19.6 mph N/A   Clear
5:53 PM 87.1 °F 92.8 °F 71.1 °F 59% 29.89 in 10.0 mi South 9.2 mph 20.7 mph N/A   Clear
6:53 PM 84.9 °F 90.1 °F 71.1 °F 63% 29.90 in 9.0 mi South 11.5 mph 19.6 mph N/A   Clear
7:53 PM 84.0 °F 88.4 °F 70.0 °F 63% 29.90 in 10.0 mi South 11.5 mph - N/A   Clear
8:53 PM 82.0 °F 85.9 °F 70.0 °F 67% 29.90 in 10.0 mi South 10.4 mph - N/A   Clear
9:53 PM 80.1 °F 82.9 °F 69.1 °F 69% 29.91 in 10.0 mi South 10.4 mph - N/A   Clear
10:53 PM 77.0 °F - 69.1 °F 76% 29.93 in 10.0 mi SSE 6.9 mph - N/A   Clear
11:53 PM 75.0 °F - 69.1 °F 82% 29.95 in 10.0 mi SSE 6.9 mph - N/A   Clear